[[{"header":{"parameterUnit":"m.s-1","parameterCategory":1,"la1":30.2992,"la2":30.254,"lo1":-89.0895,"lo2":-89.0443,"dy":0.0025,"dx":0.0025,"nx":19,"ny":19,"refTime":"2026-05-03T09:00:00:Z","depth":0,"parameterNumber":2,"parameterNumberName":"U-component_of_WINDS"},"data":[0,0,0,-0.7137,-0.7139,-0.7246,-0.7246,-0.739,-0.7392,0,0,0,0,0,0,0,0,0,0,0,-0.711,-0.7111,-0.7137,-0.714,-0.7246,-0.7246,-0.739,-0.7392,0,0,0,0,0,0,0,0,0,0,0,-0.7109,-0.7111,-0.7112,-0.714,-0.7246,-0.7246,-0.739,-0.7307,0,0,0,0,0,0,0,0,0,0,-0.7202,-0.7181,-0.711,-0.7112,-0.7141,-0.7246,-0.7247,-0.7303,-0.7312,-0.7345,0,-0.7376,0,-0.7386,-0.7402,-0.7402,0,0,0,-0.7137,-0.7174,-0.7198,-0.7112,-0.7142,-0.7246,-0.7197,-0.7308,-0.7318,-0.7358,-0.7378,-0.7383,-0.7388,-0.7403,-0.7404,-0.7605,-0.7606,0,0,-0.7131,-0.7132,-0.7191,-0.7205,-0.7189,-0.7194,-0.72,-0.7314,-0.7336,-0.7378,-0.7386,-0.7391,-0.7404,-0.7405,-0.7604,-0.7605,0,0,0,-0.7116,-0.7128,-0.7149,-0.7199,-0.7218,-0.7197,-0.7205,-0.7331,-0.7338,-0.7388,-0.7392,-0.7405,-0.7407,-0.7603,-0.7605,-0.7661,0,0,0,-0.7112,-0.7119,-0.7147,-0.7149,-0.7216,-0.7276,-0.722,-0.733,-0.7343,-0.7392,-0.7405,-0.7408,-0.7602,-0.7604,-0.7657,-0.7688,0,0,0,-0.7101,-0.7118,-0.7135,-0.7149,-0.7194,-0.7274,-0.7287,-0.7333,-0.7346,-0.7402,-0.7408,-0.7601,-0.7603,-0.7653,-0.7682,-0.7743,0,0,0,-0.7091,-0.7183,-0.7135,-0.724,-0.7193,-0.7307,-0.7287,-0.7371,-0.7426,-0.7405,-0.7602,-0.7604,-0.7652,-0.7678,-0.7739,-0.7796,-0.7819,0,0,-0.7208,-0.7197,-0.7259,-0.7219,-0.7342,-0.7291,-0.7422,-0.7471,-0.7475,-0.7562,-0.7566,-0.7658,-0.7682,-0.7742,-0.7944,-0.7962,0,0,0,-0.7296,-0.7341,-0.7373,-0.7425,-0.7464,-0.75,-0.7529,-0.7547,-0.762,-0.752,-0.7695,-0.7709,-0.7744,-0.7772,-0.7787,-0.7818,-0.7616,-0.7616,-0.7616,-0.7466,-0.7466,-0.7567,-0.758,-0.763,-0.7658,-0.7699,-0.7728,-0.7713,-0.7754,-0.7781,-0.7904,-0.7935,-0.7947,-0.7979,-0.7809,-0.7809,-0.7809,-0.7809,-0.764,-0.7704,-0.768,-0.7771,-0.7769,-0.7846,-0.7875,-0.7862,-0.7933,-0.7884,-0.7915,-0.7863,-0.7967,-0.7996,-0.7814,-0.7813,-0.7812,-0.7812,-0.7812,-0.7754,-0.7784,-0.7803,-0.7877,-0.7935,-0.7943,-0.8012,-0.8008,-0.8004,-0.8035,-0.8063,-0.8062,-0.8063,-0.8048,-0.8048,-0.8049,-0.8049,-0.8049,-0.805,-0.7865,-0.7885,-0.7944,-0.7991,-0.8024,-0.8066,-0.8093,-0.8125,-0.8159,-0.815,-0.8151,-0.8133,-0.7977,-0.7939,-0.8056,-0.8055,-0.8054,-0.8054,-0.8053,-0.8046,-0.8004,-0.8095,-0.8128,-0.8183,-0.8241,-0.8232,-0.8297,-0.8323,-0.8357,-0.8331,-0.8216,-0.8205,-0.8192,-0.8162,-0.833,-0.833,-0.833,-0.833,-0.8144,-0.8137,-0.8229,-0.8281,-0.8331,-0.8333,-0.8436,-0.8457,-0.8473,-0.8488,-0.8462,-0.842,-0.8407,-0.8404,-0.8387,-0.8358,-0.8573,-0.8573,-0.8573,-0.8257,-0.8254,-0.8344,-0.8357,-0.8399,-0.8436,-0.8533,-0.8594,-0.8602,-0.8583,-0.8501,-0.8491,-0.8422,-0.8399,-0.8382,-0.8355,-0.8303,0,0]},{"header":{"parameterUnit":"m.s-1","parameterCategory":1,"la1":30.2992,"la2":30.254,"lo1":-89.0895,"lo2":-89.0443,"dy":0.0025,"dx":0.0025,"nx":19,"ny":19,"refTime":"2026-05-03T09:00:00:Z","depth":0,"parameterNumber":3,"parameterNumberName":"V-component_of_WINDS"},"data":[0,0,0,-4.8549,-4.8554,-4.8806,-4.8807,-4.9136,-4.9139,0,0,0,0,0,0,0,0,0,0,0,-4.8479,-4.8482,-4.8548,-4.8555,-4.8806,-4.8807,-4.9135,-4.9139,0,0,0,0,0,0,0,0,0,0,0,-4.8478,-4.8481,-4.8484,-4.8555,-4.8806,-4.8807,-4.9134,-4.8942,0,0,0,0,0,0,0,0,0,0,-4.8696,-4.8638,-4.848,-4.8484,-4.8557,-4.8805,-4.8807,-4.8932,-4.8954,-4.9025,0,-4.909,0,-4.912,-4.9161,-4.9162,0,0,0,-4.855,-4.862,-4.8683,-4.8485,-4.8559,-4.8805,-4.8691,-4.8944,-4.8968,-4.9053,-4.9095,-4.9107,-4.9125,-4.9163,-4.9165,-4.9592,-4.9594,0,0,-4.8536,-4.8527,-4.8666,-4.8699,-4.8662,-4.8683,-4.8699,-4.8959,-4.9003,-4.9096,-4.9115,-4.9131,-4.9166,-4.9168,-4.959,-4.9593,0,0,0,-4.8499,-4.8518,-4.8574,-4.8686,-4.873,-4.8691,-4.8709,-4.8992,-4.9011,-4.9118,-4.9135,-4.9167,-4.9172,-4.9588,-4.9591,-4.9692,0,0,0,-4.8491,-4.8496,-4.8568,-4.8565,-4.8726,-4.8865,-4.8736,-4.8993,-4.9023,-4.9133,-4.9168,-4.9175,-4.9585,-4.9589,-4.9684,-4.9741,0,0,0,-4.8461,-4.8492,-4.8531,-4.8564,-4.8672,-4.8861,-4.8895,-4.9,-4.9033,-4.9163,-4.9176,-4.9584,-4.9589,-4.9677,-4.973,-4.9852,0,0,0,-4.8426,-4.8616,-4.8532,-4.875,-4.867,-4.8921,-4.8893,-4.908,-4.9203,-4.9169,-4.9586,-4.9591,-4.9675,-4.9723,-4.9844,-4.9954,-4.9999,0,0,-4.866,-4.8644,-4.8773,-4.8705,-4.8969,-4.8883,-4.9162,-4.9282,-4.9302,-4.9494,-4.9505,-4.9687,-4.9729,-4.9851,-5.025,-5.0286,0,0,0,-4.8844,-4.8937,-4.9008,-4.9126,-4.9223,-4.9311,-4.939,-4.9435,-4.9599,-4.9399,-4.9763,-4.9789,-4.9861,-4.9914,-4.9944,-5.0006,-4.9614,-4.9614,-4.9613,-4.9162,-4.9179,-4.9393,-4.944,-4.9554,-4.9634,-4.9728,-4.9801,-4.9783,-4.9869,-4.9927,-5.0167,-5.0229,-5.0252,-5.0317,-4.9985,-4.9985,-4.9985,-4.9986,-4.9508,-4.9642,-4.9614,-4.9813,-4.9829,-4.9995,-5.0079,-5.0061,-5.0218,-5.0125,-5.0189,-5.0088,-5.029,-5.0348,-4.9994,-4.9992,-4.9991,-4.999,-4.999,-4.9719,-4.9787,-4.9838,-5.001,-5.014,-5.018,-5.0332,-5.034,-5.0349,-5.0412,-5.0474,-5.0472,-5.0473,-5.0441,-5.0442,-5.0442,-5.0443,-5.0444,-5.0444,-4.9919,-4.9974,-5.0102,-5.0222,-5.0298,-5.04,-5.0482,-5.0557,-5.0642,-5.0636,-5.0637,-5.0611,-5.0307,-5.0231,-5.0457,-5.0455,-5.0453,-5.0452,-5.0451,-5.0266,-5.0189,-5.0387,-5.0464,-5.0604,-5.0734,-5.0742,-5.0894,-5.0957,-5.1032,-5.0993,-5.0766,-5.0749,-5.0726,-5.0663,-5.0988,-5.0988,-5.0988,-5.0988,-5.0445,-5.0437,-5.0642,-5.0765,-5.0885,-5.0913,-5.1136,-5.1201,-5.1256,-5.1296,-5.125,-5.1167,-5.1142,-5.114,-5.1107,-5.1049,-5.1465,-5.1465,-5.1466,-5.066,-5.0664,-5.0853,-5.0907,-5.1017,-5.1112,-5.1322,-5.1463,-5.1509,-5.1485,-5.1328,-5.1308,-5.1174,-5.1129,-5.1103,-5.1052,-5.0945,0,0]}]]